LUCH (OLYMP) (40258 NORAD) Tracking and Keplerian Element Data

This shows tracking and keplerian element data for the satellite.

Feedback or suggestion? Click here.




ElementValue
Catalog40258
NameLUCH (OLYMP)
Epoch Orbit2362
Epoch Day261.93094566
Epoch Year2021
RAAN196.0837
Inclination0.0195
Eccentricity0.0001434
Argument of Perigee349.1604
Mean Anonmoly204.9069
Mean Motion1.00274614
Decay Rate4.7E-07
L11 40258U 14058A 21261.93094566 .00000047 00000-0 00000-0 0 9992
L22 40258 0.0195 196.0837 0001434 349.1604 204.9069 1.00274614 23627

Live tracking and technical data element details for LUCH (OLYMP) (NORAD 40258). LUCH (OLYMP) can be tracked NOW for your location showing map with azimuth and elevation plus other details from your city location.

Track the satellite on the map from your city or location and see movement details for azimuth, elevation, latitude, longitude, range, height, and movement on the map or in text.







IsCatalogInMostPopularTable: catalog: 40258, numindb: 648
Update: records affected: 1



GetName: 40258 LUCH (OLYMP)

Hit Count: updated at: Fri, 24 Sep 2021 18:52:58 GMT